TimeCDT,TemperatureF,Dew PointF,Humidity,Sea Level PressureIn,VisibilityMPH,Wind Direction,Wind SpeedMPH,Gust SpeedMPH,PrecipitationIn,Events,Conditions,WindDirDegrees,DateUTC
12:53 AM,30.9,28.9,92,30.04,7.0,NE,3.5,-,N/A,,Overcast,50,2013-03-15 05:53:00
1:49 AM,32.0,28.4,87,29.98,7.0,NNE,16.1,-,N/A,,Overcast,30,2013-03-15 06:49:00
1:53 AM,30.9,28.9,92,30.04,6.0,NNE,18.4,-,N/A,,Overcast,30,2013-03-15 06:53:00
2:33 AM,28.4,26.6,93,29.97,5.0,NNE,16.1,-,N/A,,Overcast,30,2013-03-15 07:33:00
2:53 AM,28.0,26.1,92,30.04,5.0,NE,10.4,-,N/A,,Overcast,50,2013-03-15 07:53:00
4:53 AM,26.1,24.1,92,29.96,6.0,ENE,9.2,-,0.00,,Overcast,70,2013-03-15 09:53:00
5:53 AM,25.0,23.0,92,29.93,7.0,ENE,11.5,-,N/A,,Overcast,70,2013-03-15 10:53:00
6:41 AM,24.8,21.2,86,29.87,6.0,NE,16.1,-,N/A,,Overcast,40,2013-03-15 11:41:00
6:53 AM,23.0,21.9,96,29.92,6.0,ENE,13.8,-,N/A,,Overcast,60,2013-03-15 11:53:00
7:53 AM,21.9,21.0,96,29.97,4.0,NNE,13.8,-,N/A,,Overcast,20,2013-03-15 12:53:00
8:07 AM,21.2,21.2,100,29.90,4.0,NE,13.8,-,N/A,,Overcast,40,2013-03-15 13:07:00
8:45 AM,28.4,28.4,100,29.92,1.0,NW,9.2,-,N/A,Snow,Light Snow,310,2013-03-15 13:45:00
8:53 AM,21.9,21.0,96,29.95,4.0,NE,13.8,-,N/A,,Overcast,40,2013-03-15 13:53:00
9:30 AM,21.2,21.2,100,29.88,2.0,ENE,12.7,-,N/A,,Overcast,60,2013-03-15 14:30:00
9:53 AM,23.0,23.0,100,29.96,2.5,NNE,13.8,-,N/A,,Overcast,30,2013-03-15 14:53:00
10:15 AM,24.8,23.0,93,29.90,1.8,NE,13.8,-,N/A,,Overcast,40,2013-03-15 15:15:00
10:53 AM,24.1,24.1,100,29.95,1.5,NE,12.7,-,N/A,,Overcast,50,2013-03-15 15:53:00
11:34 AM,24.8,24.8,100,29.88,1.0,NE,11.5,-,N/A,,Overcast,50,2013-03-15 16:34:00
11:41 AM,24.8,24.8,100,29.87,0.8,NE,11.5,-,N/A,,Overcast,50,2013-03-15 16:41:00
11:53 AM,25.0,24.1,96,29.94,0.8,NE,13.8,-,N/A,,Overcast,40,2013-03-15 16:53:00
12:53 PM,27.0,26.1,96,29.91,1.0,NE,8.1,17.3,N/A,,Overcast,50,2013-03-15 17:53:00
1:08 PM,28.4,26.6,93,29.86,0.8,NE,11.5,-,N/A,,Overcast,50,2013-03-15 18:08:00
1:53 PM,26.1,26.1,100,29.94,0.5,NNE,9.2,-,N/A,Fog,Light Freezing Fog,20,2013-03-15 18:53:00
2:06 PM,26.6,26.6,100,29.86,0.2,NE,9.2,-,N/A,Fog,Light Freezing Fog,50,2013-03-15 19:06:00
2:53 PM,27.0,26.1,96,29.90,0.5,ENE,9.2,-,N/A,Fog,Light Freezing Fog,60,2013-03-15 19:53:00
3:30 PM,28.4,26.6,93,29.80,1.0,ESE,5.8,-,N/A,,Overcast,110,2013-03-15 20:30:00
3:44 PM,28.4,26.6,93,29.80,0.8,ESE,8.1,-,N/A,,Overcast,110,2013-03-15 20:44:00
3:53 PM,28.0,27.0,96,29.85,0.8,East,6.9,-,N/A,,Overcast,80,2013-03-15 20:53:00
4:04 PM,28.4,28.4,100,29.79,1.0,East,5.8,-,N/A,,Overcast,80,2013-03-15 21:04:00
4:14 PM,28.4,28.4,100,29.79,2.0,ESE,4.6,-,N/A,,Overcast,110,2013-03-15 21:14:00
4:26 PM,28.4,28.4,100,29.79,3.0,East,5.8,-,N/A,,Overcast,80,2013-03-15 21:26:00
5:13 PM,28.4,28.4,100,29.84,1.8,North,8.1,-,N/A,,Overcast,350,2013-03-15 22:13:00
5:29 PM,28.4,28.4,100,29.83,0.8,North,9.2,-,N/A,,Overcast,350,2013-03-15 22:29:00
5:43 PM,28.4,28.4,100,29.84,0.2,North,10.4,-,N/A,Fog,Light Freezing Fog,360,2013-03-15 22:43:00
5:51 PM,28.4,28.4,100,29.84,0.5,North,12.7,-,N/A,Fog,Light Freezing Fog,360,2013-03-15 22:51:00
5:53 PM,28.0,27.0,96,29.91,0.2,North,11.5,-,N/A,Fog,Light Freezing Fog,360,2013-03-15 22:53:00
6:53 PM,27.0,26.1,96,29.91,0.2,NNE,12.7,-,N/A,Fog,Light Freezing Fog,20,2013-03-15 23:53:00
7:46 PM,26.6,24.8,93,29.86,0.8,NNE,11.5,-,N/A,,Mist,20,2013-03-16 00:46:00
7:53 PM,25.0,25.0,100,29.95,1.0,NNE,10.4,-,N/A,,Overcast,20,2013-03-16 00:53:00
8:04 PM,24.8,23.0,93,29.88,1.8,NNE,15.0,-,N/A,,Overcast,20,2013-03-16 01:04:00
8:13 PM,24.8,23.0,93,29.88,2.0,NNE,11.5,-,0.00,Rain,Light Freezing Rain,20,2013-03-16 01:13:00
8:42 PM,23.0,21.2,93,29.87,3.0,NNE,9.2,-,0.00,Rain,Light Freezing Rain,20,2013-03-16 01:42:00
8:48 PM,23.0,21.2,93,29.90,2.5,North,11.5,-,0.00,,Overcast,350,2013-03-16 01:48:00
8:53 PM,23.0,21.9,96,29.98,3.0,North,11.5,-,0.00,,Overcast,350,2013-03-16 01:53:00
9:53 PM,21.9,21.0,96,29.99,7.0,North,16.1,-,N/A,,Overcast,350,2013-03-16 02:53:00
10:53 PM,19.9,19.0,96,30.01,6.0,NNW,13.8,-,N/A,,Overcast,340,2013-03-16 03:53:00
11:53 PM,18.0,16.0,92,30.04,7.0,North,21.9,29.9,N/A,,Overcast,350,2013-03-16 04:53:00